CSAPA EDAU-EDDC

Flight info

Callsign CSAPA
Flight time 0h 21m
Altitude 2500
Route EDAU/12 DCT THIENDORF A13HIGHWAY NOVEMBER NROUTE EDDC
Aircraft C152/L-V/N

Departure

Time 2026-05-08 17:02
Airport Riesa-Göhlis Airport (EDAU)

Arrival

Time 2026-05-08 17:24
Airport Dresden Airport (EDDC)
Time Latitude Longitude Altitude Speed Heading
2026-05-08 16:57 51.29631 13.35644 325 ft 0 kts 180°
2026-05-08 16:58 51.29629 13.35644 325 ft 1 kts 180°
2026-05-08 16:59 51.29617 13.35643 325 ft 2 kts 188°
2026-05-08 16:59 51.29605 13.35634 325 ft 1 kts 211°
2026-05-08 16:59 51.29573 13.35602 325 ft 11 kts 211°
2026-05-08 16:59 51.29549 13.35524 325 ft 10 kts 300°
2026-05-08 17:00 51.29570 13.35424 325 ft 7 kts 235°
2026-05-08 17:00 51.29536 13.35384 325 ft 5 kts 212°
2026-05-08 17:00 51.29512 13.35360 325 ft 2 kts 212°
2026-05-08 17:00 51.29504 13.35352 325 ft 1 kts 212°
2026-05-08 17:01 51.29468 13.35323 325 ft 6 kts 175°
2026-05-08 17:01 51.29405 13.35458 325 ft 39 kts 121°
2026-05-08 17:01 51.29179 13.36045 386 ft 73 kts 122°
2026-05-08 17:01 51.28933 13.36683 639 ft 68 kts 120°
2026-05-08 17:02 51.28637 13.37314 837 ft 71 kts 135°
2026-05-08 17:02 51.28238 13.37761 1044 ft 72 kts 156°
2026-05-08 17:02 51.27686 13.37850 1121 ft 91 kts 193°
2026-05-08 17:02 51.27155 13.37389 1241 ft 84 kts 216°
2026-05-08 17:03 51.26677 13.36804 1249 ft 88 kts 224°
2026-05-08 17:03 51.26436 13.35924 1265 ft 90 kts 267°
2026-05-08 17:03 51.26629 13.34954 1244 ft 97 kts 302°
2026-05-08 17:03 51.27000 13.34057 1324 ft 97 kts 304°
2026-05-08 17:04 51.27273 13.33060 1403 ft 101 kts 276°
2026-05-08 17:04 51.27053 13.32023 1516 ft 101 kts 227°
2026-05-08 17:04 51.26417 13.31614 1620 ft 102 kts 178°
2026-05-08 17:04 51.25808 13.32092 1738 ft 101 kts 131°
2026-05-08 17:05 51.25581 13.33138 1860 ft 100 kts 92°
2026-05-08 17:05 51.25565 13.34219 2029 ft 97 kts 90°
2026-05-08 17:05 51.25567 13.35296 2131 ft 99 kts 89°
2026-05-08 17:05 51.25660 13.36378 2264 ft 98 kts 74°
2026-05-08 17:06 51.25932 13.37376 2376 ft 99 kts 62°
2026-05-08 17:06 51.26261 13.38344 2490 ft 99 kts 60°
2026-05-08 17:06 51.26613 13.39289 2599 ft 99 kts 58°
2026-05-08 17:06 51.26964 13.40247 2607 ft 101 kts 64°
2026-05-08 17:07 51.27248 13.41311 2502 ft 106 kts 68°
2026-05-08 17:07 51.27515 13.42398 2475 ft 104 kts 69°
2026-05-08 17:07 51.27770 13.43479 2442 ft 104 kts 70°
2026-05-08 17:07 51.28018 13.44552 2414 ft 103 kts 69°
2026-05-08 17:08 51.28279 13.45580 2462 ft 98 kts 67°
2026-05-08 17:08 51.28540 13.46594 2453 ft 99 kts 68°
2026-05-08 17:08 51.28798 13.47606 2467 ft 98 kts 68°
2026-05-08 17:08 51.29060 13.48618 2474 ft 98 kts 67°
2026-05-08 17:09 51.29327 13.49622 2482 ft 98 kts 66°
2026-05-08 17:09 51.29547 13.50660 2468 ft 100 kts 78°
2026-05-08 17:09 51.29671 13.51744 2490 ft 97 kts 79°
2026-05-08 17:09 51.29798 13.52811 2491 ft 99 kts 79°
2026-05-08 17:10 51.29934 13.53886 2497 ft 98 kts 78°
2026-05-08 17:10 51.30080 13.54948 2504 ft 98 kts 77°
2026-05-08 17:10 51.30241 13.56010 2507 ft 98 kts 76°
2026-05-08 17:10 51.30412 13.57054 2514 ft 98 kts 75°
2026-05-08 17:11 51.30596 13.58106 2516 ft 98 kts 73°
2026-05-08 17:11 51.30791 13.59149 2521 ft 98 kts 75°
2026-05-08 17:11 51.30930 13.60228 2512 ft 99 kts 80°
2026-05-08 17:11 51.31041 13.61312 2524 ft 98 kts 81°
2026-05-08 17:12 51.31139 13.62399 2522 ft 99 kts 82°
2026-05-08 17:12 51.31230 13.63489 2529 ft 99 kts 82°
2026-05-08 17:12 51.31320 13.64577 2531 ft 99 kts 82°
2026-05-08 17:12 51.31414 13.65667 2535 ft 99 kts 82°
2026-05-08 17:13 51.31515 13.66752 2537 ft 99 kts 81°
2026-05-08 17:13 51.31626 13.67831 2540 ft 99 kts 80°
2026-05-08 17:13 51.31750 13.68915 2543 ft 99 kts 79°
2026-05-08 17:13 51.31887 13.69977 2546 ft 99 kts 77°
2026-05-08 17:14 51.31970 13.71062 2553 ft 98 kts 96°
2026-05-08 17:14 51.31665 13.72013 2537 ft 100 kts 141°
2026-05-08 17:14 51.31027 13.72478 2502 ft 102 kts 163°
2026-05-08 17:14 51.30338 13.72728 2488 ft 102 kts 170°
2026-05-08 17:15 51.29638 13.72894 2467 ft 102 kts 173°
2026-05-08 17:15 51.28934 13.73021 2454 ft 102 kts 174°
2026-05-08 17:15 51.28230 13.73113 2436 ft 102 kts 177°
2026-05-08 17:15 51.27521 13.73087 2416 ft 100 kts 186°
2026-05-08 17:16 51.26838 13.72922 2298 ft 101 kts 191°
2026-05-08 17:16 51.26167 13.72718 2079 ft 96 kts 191°
2026-05-08 17:16 51.25515 13.72552 1878 ft 94 kts 186°
2026-05-08 17:16 51.24865 13.72473 1711 ft 93 kts 182°
2026-05-08 17:17 51.24210 13.72454 1524 ft 95 kts 179°
2026-05-08 17:17 51.23561 13.72528 1439 ft 91 kts 173°
2026-05-08 17:17 51.22930 13.72686 1404 ft 93 kts 169°
2026-05-08 17:17 51.22298 13.72915 1449 ft 92 kts 166°
2026-05-08 17:18 51.21677 13.73178 1451 ft 94 kts 165°
2026-05-08 17:18 51.21053 13.73458 1474 ft 92 kts 163°
2026-05-08 17:18 51.20444 13.73759 1484 ft 93 kts 163°
2026-05-08 17:18 51.19823 13.74056 1500 ft 93 kts 163°
2026-05-08 17:19 51.19206 13.74362 1513 ft 93 kts 162°
2026-05-08 17:19 51.18589 13.74680 1527 ft 93 kts 161°
2026-05-08 17:19 51.17975 13.75010 1539 ft 93 kts 161°
2026-05-08 17:19 51.17344 13.75266 1539 ft 94 kts 171°
2026-05-08 17:20 51.16689 13.75308 1549 ft 94 kts 181°
2026-05-08 17:20 51.16043 13.75234 1562 ft 94 kts 188°
2026-05-08 17:20 51.15406 13.74993 1557 ft 95 kts 197°
2026-05-08 17:20 51.14805 13.74568 1556 ft 96 kts 211°
2026-05-08 17:21 51.14285 13.73945 1765 ft 92 kts 219°
2026-05-08 17:21 51.13804 13.73299 1770 ft 90 kts 221°
2026-05-08 17:21 51.13324 13.72724 1614 ft 88 kts 216°
2026-05-08 17:21 51.12859 13.72210 1507 ft 75 kts 202°
2026-05-08 17:22 51.12369 13.72266 1461 ft 71 kts 154°
2026-05-08 17:22 51.11983 13.72758 1388 ft 71 kts 136°
2026-05-08 17:22 51.11635 13.73345 1284 ft 75 kts 126°
2026-05-08 17:22 51.11530 13.74121 1181 ft 73 kts 79°
2026-05-08 17:23 51.11835 13.74744 1048 ft 75 kts 36°
2026-05-08 17:23 51.12231 13.75264 903 ft 73 kts 41°
2026-05-08 17:23 51.12611 13.75786 791 ft 70 kts 41°
2026-05-08 17:23 51.12830 13.76092 759 ft 56 kts 41°
2026-05-08 17:24 51.13129 13.76506 758 ft 31 kts 38°
2026-05-08 17:24 51.13235 13.76649 758 ft 17 kts 41°
2026-05-08 17:24 51.13286 13.76769 758 ft 10 kts 128°
2026-05-08 17:24 51.13253 13.76831 758 ft 11 kts 131°
2026-05-08 17:25 51.13219 13.76890 758 ft 0 kts 131°
2026-05-08 17:26 51.13184 13.76915 758 ft 11 kts 177°
2026-05-08 17:26 51.13122 13.76852 758 ft 12 kts 221°
2026-05-08 17:26 51.13058 13.76763 758 ft 13 kts 221°
2026-05-08 17:26 51.12988 13.76666 758 ft 14 kts 221°
2026-05-08 17:27 51.12913 13.76563 758 ft 15 kts 220°
2026-05-08 17:27 51.12833 13.76456 758 ft 15 kts 220°
2026-05-08 17:27 51.12751 13.76347 758 ft 14 kts 219°
2026-05-08 17:27 51.12688 13.76263 758 ft 10 kts 219°
2026-05-08 17:28 51.12641 13.76201 758 ft 8 kts 219°
2026-05-08 17:28 51.12594 13.76139 758 ft 10 kts 220°
2026-05-08 17:28 51.12531 13.76055 758 ft 14 kts 219°
2026-05-08 17:28 51.12477 13.75983 758 ft 11 kts 220°
2026-05-08 17:29 51.12433 13.75950 758 ft 4 kts 134°
2026-05-08 17:29 51.12401 13.76004 758 ft 9 kts 134°
2026-05-08 17:29 51.12384 13.76055 758 ft 3 kts 68°
2026-05-08 17:29 51.12402 13.76078 758 ft 3 kts
2026-05-08 17:30 51.12417 13.76061 758 ft 2 kts 317°
2026-05-08 17:30 51.12428 13.76045 758 ft 2 kts 315°
2026-05-08 17:30 51.12438 13.76029 758 ft 0 kts 312°
2026-05-08 17:30 51.12438 13.76028 758 ft 0 kts 312°